This is the latest recevied weather packets stored in our database for station/object KLEMETTI. If no packets are shown the sender has not sent any weather packets the latest 10 day(s).
| Time | Temp. | Humidity | Pressure | Rain* | Wind** | Luminosity | Snow |
|---|---|---|---|---|---|---|---|
| 1777422412 | 0.56° C | 80% | 1027 hPa | 0 mm | - | - | - |
| 1777421211 | 1.11° C | 80% | 1027 hPa | 0 mm | - | - | - |
| 1777420011 | 1.11° C | 78% | 1027 hPa | 0 mm | - | - | - |
| 1777418811 | 1.11° C | 77% | 1027 hPa | 0 mm | - | - | - |
| 1777417611 | 1.11° C | 76% | 1027 hPa | 0 mm | - | - | - |
| 1777416411 | 1.11° C | 76% | 1026.9 hPa | 0 mm | - | - | - |
| 1777415213 | 1.11° C | 74% | 1026.9 hPa | 0 mm | - | - | - |
| 1777414011 | 1.11° C | 72% | 1026.8 hPa | 0 mm | - | - | - |
| 1777412811 | 1.11° C | 69% | 1026.8 hPa | 0 mm | - | - | - |
| 1777411610 | 1.11° C | 67% | 1026.8 hPa | 0 mm | - | - | - |
| 1777410411 | 1.67° C | 66% | 1026.7 hPa | 0 mm | - | - | - |
| 1777409211 | 1.67° C | 66% | 1026.6 hPa | 0 mm | - | - | - |
| 1777408011 | 1.67° C | 65% | 1026.6 hPa | 0 mm | - | - | - |
| 1777406810 | 1.67° C | 64% | 1026.6 hPa | 0 mm | - | - | - |
| 1777405610 | 2.22° C | 62% | 1026.7 hPa | 0 mm | - | - | - |
| 1777404410 | 2.22° C | 59% | 1026.6 hPa | 0 mm | - | - | - |
| 1777403210 | 2.78° C | 53% | 1026.6 hPa | 0 mm | - | - | - |
| 1777402010 | 2.78° C | 51% | 1026.4 hPa | 0 mm | - | - | - |
| 1777400810 | 3.33° C | 50% | 1026.3 hPa | 0 mm | - | - | - |
| 1777399610 | 3.33° C | 47% | 1026.1 hPa | 0 mm | - | - | - |
| 1777398410 | 3.89° C | 47% | 1026 hPa | 0 mm | - | - | - |
| 1777397210 | 4.44° C | 45% | 1025.8 hPa | 0 mm | - | - | - |
| 1777396009 | 4.44° C | 44% | 1025.7 hPa | 0 mm | - | - | - |
| 1777394810 | 5° C | 43% | 1025.7 hPa | 0 mm | - | - | - |
| 1777393609 | 5° C | 41% | 1025.6 hPa | 0 mm | - | - | - |
* Rain latest hour (hover to see other rain measurements)
** Current wind speed in m/s (hover to see current wind gust speed)